Volver al catálogo

CAPELLA-16

ACADIA

ActivoCienciaSSO
NORAD 65318·PAYLOAD·🇺🇸 United States

Lanzado Aug 26, 2025 desde Vandenberg Space Force Base

Loading…

Próximos Pases (próximas 24 horas)

TLE

ActualizadoSource: Space-Track

Época: Sep 14, 2026, 14:58 UTC

1 65318U 25188D   26257.62384967  .00005162  00000-0  48179-3 0  9990
2 65318  97.7319 331.4487 0002605 310.0899  50.0092 14.94618057 57276

Sigue CAPELLA-16 en tiempo real con AllMySat

Download on the App Store